铱星星座 160星 (IRIDIUM 160)

导读 | 星芒AI

IRIDIUM 160 是 IRIDIUM 卫星通信系统的一部分,由美国 IRIDIUM 公司运营。该系统由 66 颗低轨卫星组成,提供全球范围的语音和数据通信服务。IRIDIUM 160 于 1997 年发射,运行在 780 公里高度的近极地轨道,支持手持终端的卫星通信。该卫星采用跳频扩频技术,具有抗干扰能力强、信号稳定等特点,广泛应用于航空、航海、军事和应急通信等领域。IRIDIUM 系统在 2000 年代初经历财务困难后,于 2016 年完成卫星更新,进一步提升了服务性能和可靠性。

基本信息
目录编号:
43569
目录名称:
IRIDIUM 160
国际标识:
2018-061A
轨道中心:
EARTH
卫星名称:
铱星星座 160星
卫星全名:
铱星星座 160星 (IRIDIUM 160)
卫星状态:
在轨 (已飞行2653 天)
发射日期:
2018-07-25 UTC
国别 :
美国 (US)
星等 :
--
轨道信息
数据来源 国际轨道数据 AOE轨道数据
星历时间 2025-10-28T19:58:03+0800
19小时前
查看轨道信息
2025-10-28T08:00:00+0800
1天前
查看轨道信息
半长轴 7155.804km 7155.808km
偏心率 0.0002256 0.0002194
轨道倾角 86.399° 86.399°
近地点辐角 88.605° 93.828°
升交点赤经 153.650° 153.860°
平近点角 271.540° 213.371°
近地点 776.054km 776.103km
远地点 779.284km 779.243km
周期 100.403分钟 100.403分钟
每日圈数 14.342179 14.342167
详细信息
平衡模式:
三轴稳定
覆盖范围:
全球
运营商:
铱星通信公司
运营商所在国:
美国
制造商(研发单位):
阿莱尼亚宇航公司
制造商所在国:
意大利
使用方式:
暂无
卫星简介
铱星(Iridium)是由共66个运作中的通信卫星组成的卫星通信系统。这个系统原本规划77个通信卫星,所以用原子序数为77的铱元素来命名。铱卫星允许人们使用手持型电子设备进行全球性的语音及数据通讯。该卫星仍在工作。
2D轨道图
3D轨道图
轨道高度分析图
轨道倾角分析图
轨道综合分析图
查看轨道综合分析图